GFSSGP_con_sbcape_096.txt.gz
CAPE
0 0 0 0 0 0 0 0 0 0 0 0 0 0 0 0 0 0 2 41 636 873 1678 1876 1901 1920 1804 1496 1459 1507 1592 1667 1664 1613 1566 1508 1584 1593 1438 1381 1093 374 26 2 0 0 0 0 0
0 0 0 0 0 0 0 0 0 0 0 0 0 0 0 0 0 21 48 256 616 1103 1529 1571 1933 1844 1720 1489 1353 1407 1490 1523 1506 1465 1450 1486 1505 1366 994 989 665 177 13 0 0 0 0 0 0
0 0 0 0 0 0 0 0 0 0 0 0 0 0 0 0 0 36 7 516 827 1123 1340 1508 1981 1789 1648 1468 1263 1282 1378 1401 1442 1432 1411 1423 1357 1199 1010 856 613 102 4 0 0 0 0 0 0
0 0 0 0 0 0 0 0 0 0 0 0 0 0 0 0 0 0 146 650 931 1188 1268 1883 1984 1834 1619 1488 1279 1238 1368 1411 1413 1438 1416 1390 1243 1172 1014 848 626 291 17 0 0 0 0 0 0
0 0 0 0 0 0 0 0 0 0 0 0 0 0 0 0 0 112 214 598 760 1099 1191 1754 1985 1885 1679 1509 1420 1303 1412 1405 1398 1423 1375 1298 1217 1094 998 835 499 207 60 12 0 0 0 0 0
0 0 0 0 0 0 0 0 0 0 0 0 0 0 0 0 0 38 203 218 652 940 1323 1653 1978 1907 1636 1528 1457 1373 1294 1373 1394 1399 1352 1281 1163 1101 958 840 626 471 225 138 23 26 23 0 0
0 0 0 0 0 0 0 0 0 0 0 0 0 0 0 0 0 11 67 99 356 938 1493 1388 1493 1753 1727 1579 1443 1438 1335 1291 1288 1289 1289 1244 1174 1179 1124 1013 932 790 522 382 289 170 56 5 0
0 0 0 0 0 0 0 0 0 0 0 0 0 0 0 0 0 21 22 24 244 1039 1299 1263 1273 1484 1379 1294 1602 1571 1495 1393 1296 1301 1280 1157 1163 1202 1217 977 1024 958 724 524 457 323 138 47 12
0 0 0 0 0 0 0 0 0 0 0 0 0 0 0 0 67 96 38 103 376 848 1222 1267 1163 1200 1305 1122 1314 1637 1501 1582 1479 1410 1366 1020 651 838 862 815 712 1084 929 747 544 393 278 172 118
0 0 0 0 0 0 0 0 0 0 0 0 0 0 0 0 98 204 237 168 389 618 1141 1248 1210 1162 1062 1323 1246 1123 1006 1184 1148 1128 1097 651 423 411 487 736 895 1129 1112 973 797 591 492 395 73
0 0 0 0 0 0 0 0 0 0 0 0 0 0 0 0 0 182 327 339 388 484 962 1201 1212 1132 1029 1384 1285 1227 1208 1194 964 1005 860 638 440 352 578 383 580 647 772 442 580 572 441 200 81
0 0 0 0 0 0 0 0 0 0 0 0 0 0 0 0 0 0 346 500 518 565 674 1181 1098 920 1009 1038 1011 1092 1176 1310 1199 1014 951 628 467 314 305 285 187 200 188 176 206 238 227 145 136
0 0 0 0 0 0 0 0 0 0 0 0 0 0 0 0 0 0 0 384 585 640 683 1006 1041 994 928 1111 1083 1006 1037 1099 1064 1018 910 777 604 431 259 242 167 77 79 125 159 208 233 186 137
0 0 0 0 0 0 0 0 0 0 0 0 0 0 0 0 0 0 0 31 536 694 698 850 1026 953 982 1249 1039 948 971 1077 912 933 960 872 687 486 284 208 143 110 86 110 181 227 253 229 154
0 0 0 0 0 0 0 0 0 0 0 0 0 0 0 0 0 0 0 2 129 453 705 683 827 938 954 1157 991 891 992 946 717 619 469 707 623 368 226 124 93 54 78 148 201 241 263 263 228
0 0 0 0 0 0 0 0 0 0 0 0 0 0 0 0 0 0 0 0 3 128 781 690 888 778 846 994 996 905 716 694 769 682 494 482 702 508 234 117 82 164 194 256 301 321 341 319 260
0 0 0 0 0 0 0 0 0 0 0 0 0 0 0 0 0 0 0 0 0 14 382 710 894 850 787 801 952 803 665 641 579 531 482 518 657 644 481 348 314 271 307 313 323 275 134 81 38
0 0 0 0 0 0 0 0 0 0 0 0 0 0 0 0 0 0 0 0 0 0 29 575 875 935 814 751 948 1021 943 726 663 748 741 716 694 752 724 767 799 842 780 700 402 290 118 89 61
0 0 0 0 0 0 0 0 0 0 0 0 0 0 0 0 0 0 0 0 0 0 0 221 667 846 999 1148 1226 1160 1303 1030 842 972 933 961 896 987 949 973 881 799 903 836 585 354 263 183 53
0 0 0 0 0 0 0 0 0 0 0 0 0 0 0 0 0 0 0 0 0 0 0 0 388 526 1050 1424 812 1056 797 751 726 660 814 870 1059 1249 1261 896 777 971 1027 889 745 463 336 182 87
0 0 0 0 0 0 0 0 0 0 0 0 0 0 0 0 0 0 0 0 0 0 0 0 149 663 862 765 54 0 0 145 715 822 892 836 784 681 653 480 218 1018 1000 982 828 564 385 503 181
0 0 0 0 0 0 0 0 0 0 0 0 0 0 0 0 0 0 0 0 0 0 0 0 0 453 864 378 385 241 532 468 427 587 299 900 1031 726 324 192 130 553 911 773 706 456 503 357 442
0 0 0 0 0 0 0 0 0 0 0 0 0 0 0 0 0 0 0 0 0 0 0 0 0 20 357 346 590 186 101 16 0 0 21 3 229 717 706 651 580 884 921 965 925 649 403 302 456
0 0 0 0 0 0 0 0 0 0 0 0 0 0 0 0 0 0 0 0 0 0 0 0 0 0 8 40 36 192 198 31 20 1 4 0 0 0 0 61 582 910 875 523 576 633 475 467 440
0 0 0 0 0 0 0 0 0 0 0 0 0 0 0 0 0 0 0 0 0 0 0 0 0 0 0 9 24 62 141 57 41 25 1 0 0 0 29 56 82 256 640 752 678 466 381 476 461
0 0 0 0 0 0 0 0 0 0 0 0 0 0 0 0 0 0 0 0 0 0 0 0 0 0 0 0 3 3 3 0 0 0 0 0 0 0 0 0 0 0 57 304 759 862 497 618 487
0 0 0 0 0 0 0 0 0 0 0 0 0 0 0 0 0 0 0 0 0 0 0 0 0 0 0 0 0 0 0 0 0 0 0 0 0 0 0 0 0 0 69 223 300 496 811 1070 714
0 0 0 0 0 0 0 0 0 0 0 0 0 0 0 0 0 0 0 0 0 0 0 0 0 0 0 0 0 0 0 0 0 0 0 0 0 0 0 0 0 0 10 34 78 110 269 506 709
0 0 0 0 0 0 0 0 0 0 0 0 0 0 0 0 0 0 0 0 0 0 0 0 0 0 0 0 0 0 0 0 0 0 0 0 0 0 0 0 0 0 0 0 1 8 63 107 164
0 0 0 0 4 23 8 0 0 0 0 0 0 0 0 0 0 0 0 0 0 0 0 0 0 0 0 0 0 0 0 0 0 0 0 0 0 0 0 0 0 0 0 0 0 24 156 138 160

GFSSGP_con_sbcape_102.txt.gz
CAPE
0 0 0 0 0 0 0 6 0 0 0 0 0 0 39 39 78 501 712 112 39 657 1655 1312 1985 2100 2186 2513 2481 2352 2141 1891 1750 1757 1579 1504 1668 1783 1688 1726 1341 873 346 12 0 0 0 0 43
0 0 0 0 0 0 34 0 0 0 0 0 0 0 13 73 83 697 602 103 282 853 1512 822 1882 2009 2220 2359 2364 2220 2130 2011 1912 1821 1632 1610 1730 1773 1547 1502 1077 533 45 0 0 0 0 0 0
0 0 0 0 0 0 38 0 0 0 0 0 0 0 0 11 3 393 749 223 533 972 1199 1005 1886 1928 2087 2192 2256 2231 2198 2094 2032 1940 1803 1735 1796 1788 1694 1525 980 176 30 0 0 0 0 0 0
0 0 0 0 0 0 1 0 0 0 0 0 0 0 0 0 0 67 691 451 914 860 900 1482 1828 1858 1900 1878 2089 2119 2177 2165 2133 2020 1822 1729 1745 1664 1476 1174 895 401 27 0 0 0 0 0 0
0 0 0 0 0 0 0 0 0 0 0 0 0 0 0 0 232 454 947 848 943 743 857 1802 1803 1786 1811 1821 1754 1975 2007 1958 1954 1929 1799 1707 1657 1434 1202 930 540 207 61 3 0 0 0 0 0
0 0 0 0 0 0 0 0 0 0 0 0 0 0 0 0 181 808 1152 1086 672 699 948 1528 1658 1693 1615 1690 1719 1732 1739 1739 1788 1758 1660 1645 1503 1292 1140 956 654 402 236 76 9 0 0 0 0
0 0 0 0 0 0 0 0 0 0 0 0 0 0 0 0 0 797 1138 1085 658 628 985 1623 1024 1176 1546 1544 1542 1533 1508 1532 1591 1583 1527 1504 1394 1195 1087 1035 919 628 387 124 45 7 0 0 0
0 0 0 0 0 0 0 0 0 0 0 0 0 0 0 0 0 209 1146 1246 886 729 781 1670 1243 786 709 708 1526 1549 1520 1516 1524 1519 1476 1443 1132 912 788 853 806 463 227 126 92 59 15 4 1
0 0 0 0 0 0 0 0 0 0 0 0 0 0 0 0 0 151 845 1137 1045 663 657 1214 1328 1001 761 677 903 1414 1411 1544 1586 1406 1410 1003 226 250 285 129 759 541 368 180 142 149 190 110 97
0 0 0 0 0 0 0 0 0 0 0 0 0 0 0 0 0 62 605 817 906 749 616 949 1470 1368 977 565 890 570 407 477 630 632 794 575 130 157 116 380 577 612 626 434 310 285 230 130 113
0 0 0 0 0 0 0 0 0 0 0 0 0 0 0 0 0 25 181 533 735 876 940 1028 1664 1989 1555 947 935 681 445 377 565 719 889 655 352 557 494 378 482 328 580 209 366 297 393 546 731
0 0 0 0 0 0 0 0 0 0 0 0 0 0 0 0 0 0 27 165 696 865 1080 1296 1778 2220 2202 1342 1062 902 637 595 555 554 898 812 803 977 482 341 322 624 438 358 411 233 675 1249 1308
0 0 0 0 0 0 0 0 0 0 0 0 0 0 0 0 0 0 0 0 485 1112 1309 1544 1849 2379 2542 2306 1532 1404 1181 972 972 988 1229 1021 876 872 840 721 561 458 358 398 314 590 1157 1417 1523
0 0 0 0 0 0 0 0 0 0 0 0 0 0 0 0 0 0 0 0 60 1077 1430 1847 2206 2571 2591 2974 2717 2202 1897 1594 1464 1263 1300 1704 1434 1517 1035 1194 1064 1059 553 386 365 481 850 1097 1421
0 0 0 0 0 0 0 0 0 0 0 0 0 0 0 0 0 0 0 0 11 227 1247 2022 2389 2590 3088 2798 2722 3079 2196 1979 1750 1542 1910 2211 2167 2121 2017 1550 1527 1312 1253 1010 707 647 715 1115 1322
0 0 0 0 0 0 0 0 0 0 0 0 0 0 0 0 0 0 0 0 0 228 1030 2130 2100 2566 3089 3058 2895 2658 2323 2269 2106 1944 2172 2465 2350 2798 3032 2025 1967 1807 1720 1196 664 456 473 932 1226
0 0 0 0 0 0 0 0 0 0 0 0 0 0 0 0 0 0 0 0 0 3 502 2129 2771 2765 3046 3219 2946 2881 2937 2622 2223 2380 2330 2328 2595 2947 3226 1997 2620 2535 1415 1042 723 671 1118 1361 2050
0 0 0 0 0 0 0 0 0 0 0 0 0 0 0 0 0 0 0 0 0 0 2 424 1651 2897 3322 3317 3269 2881 2628 2551 2311 2246 2085 2339 2597 2406 2760 2227 2344 1907 1372 1030 960 1169 2105 2290 1952
0 0 0 0 0 0 0 0 0 0 0 0 0 0 0 0 0 0 0 0 0 0 0 71 188 2074 3165 3134 3144 3029 2750 2647 2476 2361 2203 1950 1555 1677 2413 1971 1977 1950 1540 1618 2471 2423 2814 2129 1703
0 0 0 0 0 0 0 0 0 0 0 0 0 0 0 0 0 0 0 0 0 0 0 0 284 709 2422 2797 2887 2630 2456 2480 2724 2685 2671 2383 2158 2078 1857 1873 2037 2230 1515 2363 2932 3355 1866 1633 1719
0 0 0 0 0 0 0 0 0 0 0 0 0 0 0 0 0 0 0 0 0 0 0 0 113 575 972 2424 2332 2811 2822 3138 3103 3148 3041 2902 2617 2453 2309 2367 2806 2885 2797 2996 3053 2330 1873 845 820
0 0 0 0 0 0 0 0 0 0 0 0 0 0 0 0 0 0 0 0 0 0 0 0 2 236 591 1306 2277 3746 3071 2613 2687 3296 3221 3241 2800 2581 2592 2821 3086 3881 3289 3530 3076 2475 2188 1632 862
0 0 0 0 0 0 0 0 0 0 0 0 0 0 0 0 0 0 0 0 0 0 0 0 0 96 487 783 1993 2330 3191 2103 2276 2546 3829 4245 4056 2998 2793 3163 3394 3540 3325 3526 2579 2541 2698 1135 835
0 0 0 0 0 0 0 0 0 0 0 0 0 0 0 0 0 0 0 0 0 0 0 0 0 37 159 539 1018 2387 3284 3342 2323 2666 3001 3395 3907 3990 3833 3593 3728 3627 2989 2680 2499 2815 2767 2365 1979
0 0 1 2 14 1 6 5 3 1 0 0 0 0 0 0 0 0 0 0 0 0 0 0 0 94 182 232 373 770 2111 3636 4423 4221 3157 3813 3498 3390 4409 4120 3896 3608 3573 3286 3046 3134 3030 2968 2774
7 19 21 19 26 36 17 20 15 0 0 0 0 0 0 0 0 0 0 0 0 0 0 0 0 50 150 199 285 399 562 1233 2370 3420 2971 3065 2975 3101 3764 3969 3824 3812 3481 3489 3345 3134 3006 3215 2739
0 12 1 19 29 28 13 11 11 3 5 0 0 0 0 0 0 0 0 0 0 0 0 0 0 37 168 265 401 464 594 958 1851 3367 3434 3272 3502 2610 2536 2686 2679 2656 2589 2541 2855 2935 2867 2821 2884
0 1 19 25 40 30 16 12 32 8 3 24 0 0 0 0 0 0 0 0 0 0 0 0 0 2 59 123 197 459 803 1231 2057 2691 2799 2565 2262 1958 838 1664 1896 1877 1805 1830 2028 2158 2066 2282 2322
3 23 32 42 75 63 53 32 0 6 14 2 0 0 0 0 0 0 3 1 0 0 0 0 0 0 0 22 165 229 529 735 1238 1662 1891 1334 1050 759 596 535 249 595 729 933 1271 1412 1041 1280 1844
22 28 22 69 63 92 116 39 12 40 15 6 19 3 0 0 0 0 0 16 18 10 0 0 0 0 0 19 77 247 331 322 349 471 636 847 1047 888 695 619 536 421 450 677 946 963 650 815 1073

GFSSGP_con_sbcape_105.txt.gz
CAPE
0 0 0 0 0 0 2 3 77 4 0 0 0 0 13 141 447 1022 862 62 96 1128 1292 1401 2335 2576 2733 2731 2549 2248 1914 1711 1880 1779 1624 1623 1695 1735 1610 1636 1305 886 294 0 0 0 0 0 50
0 0 0 0 0 9 59 59 34 35 13 0 0 0 0 163 510 744 359 55 235 1248 1491 1185 2149 2495 2693 2708 2562 2270 2075 1865 1910 1791 1671 1670 1749 1774 1407 1301 1044 532 32 0 0 0 0 0 35
0 0 0 0 0 0 14 58 30 0 0 0 0 0 0 73 86 789 545 241 400 964 1190 1637 2150 2379 2590 2612 2518 2317 2134 1990 2003 1865 1714 1714 1802 1797 1674 1416 894 193 0 0 0 0 0 0 0
0 0 0 0 0 0 12 2 0 0 0 0 0 0 0 0 16 390 344 364 681 606 711 1593 2030 2264 2424 2456 2139 2326 2223 2135 2079 1941 1804 1785 1809 1769 1667 1204 747 161 14 0 0 0 0 0 0
0 0 0 0 0 0 0 4 0 0 0 0 0 0 0 0 55 482 498 529 825 567 534 1733 1935 2115 2321 2361 2342 2329 2251 2156 2135 2064 1909 1807 1763 1504 1277 897 422 103 13 0 0 0 0 0 0
0 0 0 0 0 0 0 0 0 0 0 0 0 0 6 0 97 336 561 646 791 648 704 1753 1598 1887 2049 2219 2222 2178 2108 2075 2084 2018 1889 1751 1545 1134 803 574 309 80 10 0 0 0 0 0 0
0 0 0 0 0 0 0 0 0 0 0 0 0 0 1 0 8 478 635 686 608 733 853 1504 763 1287 1794 1933 1939 1928 1855 1873 1884 1798 1689 1664 1272 964 710 491 287 164 65 34 0 0 0 0 0
0 0 0 0 0 0 0 0 0 0 0 0 0 0 0 0 0 321 519 557 504 698 944 1388 819 508 553 989 1806 1783 1741 1744 1709 1675 1560 1423 1054 840 622 741 511 258 105 74 51 17 0 0 1
0 0 0 0 0 0 0 0 0 0 0 0 0 0 0 0 0 0 300 475 437 537 876 1552 960 711 486 330 847 1504 1535 1647 1650 1464 1428 1007 254 374 402 60 748 404 249 117 79 76 67 77 121
0 0 0 0 0 0 0 0 0 0 0 0 0 0 0 0 0 4 180 348 430 441 515 1304 1426 1212 855 477 1016 386 399 618 768 718 882 487 190 242 21 287 904 487 436 313 315 350 290 144 22
0 0 0 0 0 0 0 0 0 0 0 0 0 0 0 0 0 0 64 241 313 403 423 730 1885 2334 1281 746 979 673 313 255 302 535 1356 1125 300 267 100 424 366 309 632 111 262 295 223 323 757
0 0 0 0 0 0 0 0 0 0 0 0 0 0 0 0 0 0 8 115 284 399 613 752 1669 2337 2594 1247 858 943 297 310 332 463 1933 1873 797 1100 946 295 394 700 307 453 499 212 308 964 1344
0 0 0 0 0 0 0 0 0 0 0 0 0 0 0 0 0 0 0 0 100 365 510 914 1473 2854 3524 3696 1530 1508 1009 538 458 621 1271 992 716 1377 985 1008 387 599 383 415 406 291 696 1290 1603
0 0 0 0 0 0 0 0 0 0 0 0 0 0 0 0 0 0 0 0 0 109 890 1095 1611 3682 3120 3459 3707 2509 2395 928 758 644 983 1781 1227 2047 819 1037 740 579 469 364 436 564 899 1731 1218
0 0 0 0 0 0 0 0 0 0 0 0 0 0 0 0 0 0 0 0 0 0 586 1410 1837 2819 4234 3687 3732 3233 2121 1631 1238 1418 2305 2542 2513 2778 1951 1045 1011 730 912 1242 884 507 920 632 706
0 0 0 0 0 0 0 0 0 0 0 0 0 0 0 0 0 0 0 0 0 0 41 657 1116 1858 3438 3978 3681 3098 2520 2392 1702 1685 1258 2704 2617 2663 2681 1970 1664 1693 1626 1215 971 724 547 671 787
0 0 0 0 0 0 0 0 0 0 0 0 0 0 0 0 0 0 0 0 0 0 0 449 1400 1762 2648 4242 3762 3891 3963 2887 2603 2520 2032 3320 3232 2726 2663 2782 2106 2588 2299 2169 1669 997 818 876 1819
0 0 0 0 0 0 0 0 0 0 0 0 0 0 0 0 0 0 0 0 0 0 0 2 704 2882 3545 3755 4295 3513 3223 3070 2878 2550 2681 3649 3040 2522 3552 2392 3053 3126 2178 1841 1533 1686 1204 1508 2202
0 0 0 0 0 0 0 0 0 0 0 0 0 0 0 0 0 0 0 0 0 0 0 0 166 1996 3138 3149 3057 3279 3065 3051 2840 2948 3677 3718 3145 2928 3756 2539 3117 3322 2966 2469 2782 1937 2516 1847 3011
0 0 0 0 0 0 0 0 0 0 0 0 0 0 0 0 0 0 0 0 0 0 0 0 91 650 1636 1866 3512 3230 3306 2575 2665 2782 3704 3590 3567 3982 3987 3618 3120 3491 2547 3292 3183 3057 1879 2427 2981
0 0 0 0 0 0 0 0 0 0 0 0 0 0 0 0 0 0 0 0 0 0 0 17 97 741 1266 1861 2192 3921 3502 3389 2393 2357 2773 3640 3895 3737 3360 3812 3465 3361 3151 2402 3326 3485 3805 2469 2487
0 0 0 0 0 0 0 0 0 0 0 0 0 0 0 0 0 0 0 0 0 0 0 0 0 253 600 1839 1335 2293 2299 2338 2077 2078 2182 3494 4364 4121 3681 3625 3685 3330 2846 2735 3664 3818 3734 3427 2012
0 0 0 0 0 0 0 0 0 0 0 0 0 0 0 0 0 0 0 0 0 0 0 0 0 0 200 800 1939 1260 1854 1251 1728 2313 3013 3750 4300 4565 3994 3881 3499 3936 4135 3995 4274 4303 4166 2819 2435
0 0 0 0 0 0 0 0 0 2 2 6 2 1 1 0 0 0 0 0 0 0 0 0 0 12 161 310 1005 2111 2704 2794 1984 1918 2270 2694 3433 4052 4147 3440 3739 4320 4489 4438 4117 4190 4019 3889 3013
0 0 0 4 12 0 1 10 15 16 0 0 0 1 4 0 0 0 0 0 0 0 0 0 0 0 50 167 337 615 1725 2514 3385 3167 2143 2056 2655 3010 3945 3886 3506 3913 4567 4474 4083 4042 3785 3993 3445
6 9 10 14 25 28 8 16 45 24 0 0 0 0 0 0 0 0 0 0 0 1 0 0 0 0 0 58 256 504 718 624 774 1815 2105 2462 1840 1938 1475 2744 2982 2702 3373 4004 4258 3555 3596 3999 3700
0 12 7 41 43 51 21 17 24 23 25 0 3 10 0 0 0 0 0 0 7 10 1 0 0 0 0 14 139 410 798 1212 1155 2002 2419 2282 3084 2434 3387 1809 1729 1463 1894 3332 3826 3571 3709 3667 3720
6 2 1 19 87 67 41 48 52 18 14 5 6 15 18 0 0 0 0 0 11 13 8 7 6 0 6 0 36 165 300 761 1159 2104 2423 2734 3412 3305 3324 1683 724 461 1984 2184 3132 3177 3522 3512 2625
11 14 26 27 55 78 81 45 5 10 10 47 31 2 2 5 31 18 0 0 0 2 4 8 16 15 3 21 19 77 218 400 701 1395 1743 2558 3093 2855 2072 1810 2067 1627 2027 1351 1599 1902 1837 1745 2687
26 40 35 93 70 77 112 82 51 33 25 34 24 1 1 22 22 20 3 0 1 5 32 43 45 42 46 32 1 2 180 404 420 852 1075 1589 2002 1991 1343 680 670 141 78 191 241 897 813 925 1666

GFSSGP_con_sbcape_111.txt.gz
CAPE
0 0 0 0 0 0 0 0 0 0 1 0 0 0 449 679 1131 621 555 1282 1318 1794 2256 2234 2070 2111 2175 2116 1868 1584 1567 1558 1411 1442 1445 1527 1726 1824 1722 1533 1236 861 161 7 0 0 0 10 193
0 0 0 0 0 0 0 0 0 0 0 0 0 0 480 626 466 638 759 1327 1272 1637 1856 2072 2191 2068 2181 2139 1854 1564 1587 1590 1427 1410 1447 1539 1602 1654 1617 1377 1004 540 0 0 0 0 0 0 47
0 0 0 0 0 0 0 0 0 0 0 0 0 0 15 164 69 99 615 1092 1251 1167 1567 2206 2300 2158 2161 2156 1846 1570 1645 1627 1519 1469 1477 1586 1573 1537 1439 1212 744 394 0 0 0 0 0 0 11
0 0 0 0 0 0 0 0 15 1 0 0 0 0 0 409 427 449 673 852 871 843 1769 2355 2370 2290 2197 2114 1888 1675 1753 1738 1632 1558 1518 1609 1611 1440 1292 1033 558 297 0 0 0 0 0 0 0
0 0 0 0 0 0 0 0 4 11 0 0 0 3 23 206 82 581 693 813 673 1096 1622 2195 2383 2463 2473 2333 2073 1840 1779 1719 1632 1597 1593 1629 1519 1360 1223 888 594 353 98 0 0 0 0 0 0
0 0 0 0 0 0 0 0 6 0 0 0 0 44 42 92 59 69 564 685 677 1395 1416 1842 2358 2435 2445 2420 2214 1983 1781 1706 1622 1572 1589 1561 1421 1289 1119 803 614 380 188 78 0 0 0 0 0
0 0 0 0 0 0 0 0 0 0 0 0 0 0 0 12 54 151 208 597 1493 1358 1025 1343 1907 2300 2381 2230 2067 1922 1749 1617 1554 1489 1464 1422 1298 1180 1006 749 627 440 284 144 49 0 0 0 0
0 0 0 0 0 0 0 0 0 0 0 0 0 0 0 0 0 65 192 1365 1465 1413 942 973 1392 1842 1862 1978 2136 1970 1809 1697 1600 1536 1459 1324 1239 1114 950 573 583 516 390 342 181 75 1 0 0
0 0 0 0 0 0 0 0 0 0 0 0 0 0 0 0 0 0 72 717 1658 1605 920 717 869 1080 1316 1547 1959 2035 2033 1893 1711 1628 1492 1050 680 734 719 481 713 718 557 473 343 206 91 28 13
0 0 0 0 0 0 0 0 0 0 0 0 0 0 0 0 0 0 0 60 744 1455 984 524 529 550 576 1311 1486 1518 1641 1608 1397 1315 1217 656 409 415 466 386 758 835 700 587 523 433 319 257 0
0 0 0 0 0 0 0 0 0 0 0 0 0 0 0 0 0 0 0 0 233 1205 807 354 363 320 195 305 1324 1235 1205 1254 1215 1122 1036 587 337 447 352 68 308 322 575 205 279 218 158 29 1
0 0 0 0 0 0 0 0 0 0 0 0 0 0 0 0 0 0 0 0 62 455 848 476 428 365 223 241 858 627 772 989 1153 1146 1083 735 339 130 152 132 114 154 161 79 4 10 10 0 0
0 0 0 0 0 0 0 0 0 0 0 0 0 0 0 0 0 0 0 0 42 650 1123 1345 902 675 531 979 802 423 320 509 530 658 878 792 324 237 112 201 61 119 79 39 0 0 8 68 80
0 0 0 0 0 0 0 0 0 0 0 0 0 0 0 0 0 0 0 0 0 493 1198 1130 490 938 886 988 1134 819 296 307 218 328 429 748 480 286 247 194 203 190 132 58 1 34 86 356 453
0 0 0 0 0 0 0 0 0 0 0 0 0 0 0 0 0 0 0 0 0 175 879 487 23 0 2 1707 1536 1986 773 405 259 277 291 726 879 262 485 384 439 364 234 151 197 248 192 395 863
0 0 0 0 0 0 0 0 0 0 0 0 0 0 0 0 0 0 0 0 0 764 547 298 39 3 55 2264 2228 2413 2407 786 382 304 493 909 753 666 397 536 421 382 432 476 458 345 340 648 543
0 0 0 0 0 0 0 0 0 0 0 0 0 0 0 0 0 0 0 0 0 0 352 351 107 120 0 621 2283 2734 2531 2350 1171 793 716 1031 878 1007 753 717 657 437 487 484 431 365 414 433 385
0 0 0 0 0 0 0 0 0 0 0 0 0 0 0 0 0 0 0 0 0 0 0 0 0 17 850 2451 2764 3057 2760 2364 2441 1923 1217 1171 1154 965 1142 1060 874 1047 805 678 571 530 488 414 580
0 0 0 0 0 0 0 0 0 0 0 0 0 0 0 0 0 0 0 0 0 0 0 0 0 0 79 17 2392 2717 2868 2662 2474 2422 2084 1373 1389 1240 1062 1268 1646 1150 1501 1150 950 865 807 827 646
0 0 0 0 0 0 0 0 0 0 0 0 0 0 0 0 0 0 0 0 0 0 0 0 0 34 1 156 32 1743 2132 2246 2671 2378 2497 2161 1199 1661 1709 1270 1268 2064 1732 1517 1357 1531 1416 1113 896
0 0 0 0 0 0 0 0 0 0 0 0 0 0 0 0 0 0 0 0 0 0 8 0 0 0 503 64 0 64 92 1013 1896 1977 2214 2232 1821 1450 927 1783 1822 1566 1786 1912 1868 1866 1346 1532 899
0 0 0 0 0 0 0 0 0 0 0 0 0 0 0 0 0 0 0 0 0 0 0 0 0 100 10 78 498 406 429 506 316 244 1061 1804 1275 252 671 0 1398 1605 1655 1509 1573 2047 1513 930 1029
0 0 0 0 0 0 0 0 0 0 0 0 0 0 0 0 0 0 0 0 0 0 0 0 0 0 0 8 10 32 61 67 238 226 288 529 1216 9 0 1 1243 0 2 1485 1737 1860 1883 1009 971
0 0 0 0 0 0 0 0 0 0 0 0 1 0 0 0 0 0 0 0 0 0 0 0 0 0 0 0 11 182 171 59 57 0 151 136 132 677 1652 1435 314 0 491 1709 1253 318 546 1262 1397
0 0 0 0 0 0 0 0 0 0 0 2 0 0 0 0 0 0 0 0 0 0 0 0 0 0 0 0 0 0 0 203 306 147 9 0 0 0 83 753 1482 1448 724 40 0 0 1 252 263
0 0 0 0 0 0 0 0 0 0 5 0 0 0 0 0 0 0 0 0 0 0 0 0 0 0 0 0 0 0 0 41 4 36 20 0 47 7 55 127 521 803 509 239 301 0 0 0 1
1 0 0 0 0 0 0 0 0 0 2 0 0 0 0 0 0 0 0 0 0 0 0 0 0 0 0 0 0 0 0 0 0 5 79 207 83 134 182 114 89 315 496 187 213 1 0 0 0
0 0 0 0 6 4 0 0 10 0 0 0 0 0 0 0 0 0 0 0 0 0 0 0 0 0 0 0 0 0 0 0 0 0 2 0 28 146 342 397 443 531 37 59 23 0 0 0 0
0 0 5 1 1 4 0 0 2 0 0 0 0 0 0 0 0 0 0 0 0 0 0 0 0 0 0 0 0 0 0 0 0 0 17 28 15 0 38 214 570 982 51 0 0 0 0 0 0
0 0 16 2 7 0 8 0 0 0 0 0 0 0 0 0 0 0 0 0 0 0 0 0 0 0 0 0 0 0 0 1 0 0 0 0 12 9 0 0 8 43 193 37 0 0 11 96 0

GFSSGP_con_sbcape_114.txt.gz
CAPE
0 0 0 0 0 0 0 0 0 0 0 0 0 472 621 575 690 466 374 833 1915 1942 1939 1868 2015 2002 1839 1663 1611 1574 1382 1351 1340 1372 1577 1647 1569 1569 1406 1269 1190 820 284 35 0 0 19 76 139
0 0 0 0 0 0 0 0 0 1 0 0 114 363 530 440 614 1019 1127 1396 1704 1941 1751 1620 1974 1947 1894 1700 1551 1509 1448 1365 1356 1345 1530 1633 1628 1523 1253 1159 864 274 8 0 0 0 0 19 95
0 0 0 0 0 0 0 0 0 0 0 0 0 0 46 261 853 596 968 1290 1686 1793 1711 1660 1962 1917 1966 1786 1557 1535 1507 1348 1368 1376 1458 1509 1529 1465 1269 974 633 111 0 0 0 0 0 6 32
0 0 0 0 0 0 0 0 0 0 0 0 0 11 16 166 269 629 1190 1284 1274 1563 1769 2185 1992 1924 1931 1849 1587 1561 1582 1412 1386 1423 1464 1499 1353 1303 1115 833 548 254 0 0 0 0 0 0 0
0 0 0 0 0 0 0 0 0 0 0 0 0 2 93 437 604 1202 1010 808 1092 1520 1967 2090 2133 2017 1988 1914 1655 1610 1605 1430 1391 1405 1481 1502 1374 1228 1068 753 560 352 96 0 0 0 0 0 0
0 0 0 0 0 0 0 0 0 0 0 0 0 5 5 751 687 836 739 610 1208 1292 1816 1980 2233 2128 1966 1934 1730 1624 1600 1497 1445 1420 1478 1431 1276 1186 1061 760 637 481 284 124 31 4 0 0 0
0 0 0 0 0 0 0 0 0 0 0 0 0 0 0 30 767 762 728 597 1229 1208 1361 1730 1938 2106 2167 1940 1752 1623 1572 1482 1414 1356 1369 1317 1235 1122 977 717 636 514 364 275 171 65 8 0 0
0 0 0 0 0 0 0 0 0 0 0 0 0 0 0 0 85 688 651 964 1237 1036 1005 1403 1639 1909 1820 1835 1968 1773 1629 1542 1422 1381 1348 1235 1189 1098 1005 651 628 573 438 373 254 112 65 9 0
0 0 0 0 0 0 0 0 0 0 0 0 0 0 0 0 8 578 1088 1264 1245 921 761 1083 1418 1522 1540 1585 1835 1914 1866 1719 1534 1450 1378 1007 749 747 594 451 484 669 569 517 418 255 144 96 58
0 0 0 0 0 0 0 0 0 0 0 0 0 0 0 0 0 432 923 1245 1253 1062 590 769 1066 1209 1340 1780 1685 1580 1620 1583 1333 1195 1116 720 469 416 388 393 695 855 760 661 607 468 329 264 8
0 0 0 0 0 0 0 0 0 0 0 0 0 0 0 0 0 0 24 1062 1472 1313 756 537 729 874 1004 1279 1230 1344 1469 1373 1217 1159 1021 526 340 313 392 201 294 351 582 244 356 270 213 77 24
0 0 0 0 0 0 0 0 0 0 0 0 0 0 0 0 0 0 0 0 838 1237 863 547 470 495 529 1002 1220 1258 1418 1221 1137 1089 986 565 245 150 182 121 17 101 58 102 70 72 54 46 23
0 0 0 0 0 0 0 0 0 0 0 0 0 0 0 0 0 0 0 0 300 855 491 305 287 303 267 443 925 905 1087 1230 1136 1052 1008 754 410 184 166 56 37 57 13 79 4 1 0 4 0
0 0 0 0 0 0 0 0 0 0 0 0 0 0 0 0 0 0 0 0 527 798 455 583 383 278 168 235 704 529 556 898 939 986 1007 983 621 354 112 73 86 43 51 78 31 0 0 0 32
0 0 0 0 0 0 0 0 0 0 0 0 0 0 0 0 0 0 0 0 73 889 965 933 561 560 501 508 677 493 296 325 406 500 673 957 793 405 332 161 166 111 100 112 87 8 1 48 322
0 0 0 0 0 0 0 0 0 0 0 0 0 0 0 0 0 0 0 0 12 431 1101 939 811 296 17 1128 1330 1113 521 286 297 278 257 419 878 780 244 297 334 346 289 222 164 144 172 224 302
0 0 0 0 0 0 0 0 0 0 0 0 0 0 0 0 0 0 0 0 14 271 710 498 90 89 4 15 1155 1528 1786 678 408 163 196 244 526 817 633 358 495 386 414 456 407 322 291 327 503
0 0 0 0 0 0 0 0 0 0 0 0 0 0 0 0 0 0 0 0 0 214 331 319 102 80 205 0 433 1683 2003 1893 1619 708 347 390 516 585 827 833 541 503 478 420 373 488 327 457 548
0 0 0 0 0 0 0 0 0 0 0 0 0 0 0 0 0 0 0 0 0 22 327 244 33 0 1 49 1864 2011 2265 1985 1959 1794 1829 1009 711 759 706 962 871 595 669 670 441 432 496 505 319
0 0 0 0 0 0 0 0 0 0 0 0 0 0 0 0 0 0 0 0 0 0 0 0 0 0 0 0 192 1518 1617 1265 1468 1793 1847 1335 1265 1139 751 710 907 1171 943 926 706 617 765 632 365
0 0 0 0 0 0 0 0 0 0 0 0 0 0 0 0 0 0 0 0 0 0 0 0 0 0 0 0 0 0 0 50 472 316 701 1031 1283 1337 1162 850 697 734 959 1019 1112 1058 948 932 547
0 0 0 0 0 0 0 0 0 0 0 0 0 0 0 0 0 0 0 0 0 0 0 0 0 0 39 125 109 48 10 6 0 0 51 43 389 1040 1341 1140 725 121 0 143 1044 1180 1289 1275 1184
0 0 0 0 0 0 0 0 0 0 0 0 0 0 0 0 0 0 0 0 0 0 0 0 0 0 0 0 0 0 0 0 0 0 0 0 179 832 328 685 84 88 66 298 378 323 812 960 880
0 0 0 0 0 0 0 0 0 0 0 0 0 0 0 0 0 0 0 0 0 0 0 0 0 0 0 0 0 0 0 0 0 2 13 0 0 0 575 380 0 0 0 0 0 16 149 587 498
0 0 0 0 0 0 0 0 0 0 0 0 0 0 0 0 0 0 0 0 0 0 0 0 0 0 0 0 0 0 0 0 2 0 0 0 0 0 0 56 240 123 173 66 0 0 53 145 43
0 0 0 0 0 0 0 0 0 0 0 0 0 0 0 0 0 0 0 0 0 0 0 0 0 0 0 0 0 0 0 0 0 0 0 0 0 0 0 0 70 164 434 289 305 70 43 122 52
0 0 0 0 0 0 0 0 0 2 0 0 0 0 0 0 0 0 0 0 0 0 0 0 0 0 0 0 0 0 0 0 0 0 0 0 0 0 0 5 73 89 176 251 299 210 101 111 1
0 0 0 0 0 0 0 0 0 0 0 0 0 0 0 0 0 0 0 0 0 0 0 0 0 0 0 0 0 0 0 0 0 0 0 0 0 0 0 6 10 22 180 174 208 235 251 0 0
0 0 0 0 0 0 0 0 0 0 0 0 0 0 0 0 0 0 0 0 0 0 0 0 0 0 0 0 0 0 0 0 0 0 0 0 0 0 0 9 6 1 0 28 1 19 74 0 0
0 0 0 0 0 5 3 0 0 0 0 0 0 0 0 0 0 0 0 0 0 0 0 0 0 0 0 0 0 0 0 0 0 0 0 0 0 0 0 0 0 0 0 0 0 0 1 0 0

GFSSGP_con_sbcape_117.txt.gz
CAPE
0 0 0 0 0 0 0 0 0 0 0 0 11 129 344 284 359 119 278 901 1409 1382 1580 1797 1873 1757 1667 1596 1516 1310 1268 1327 1332 1231 1259 1324 1380 1381 1291 1455 1398 908 550 142 0 20 78 166 189
0 0 0 0 0 0 0 0 0 0 0 3 258 391 432 355 762 783 672 1642 1391 1456 1491 1599 1944 1726 1641 1518 1443 1242 1278 1263 1372 1385 1399 1445 1431 1283 960 1144 982 499 185 48 0 62 154 217 199
0 0 0 0 0 0 0 0 0 0 0 0 0 4 127 476 937 659 994 1666 1624 1450 1306 1560 1994 1724 1657 1474 1458 1286 1288 1243 1357 1403 1416 1372 1393 1378 1184 1049 822 241 57 17 0 61 95 182 235
0 0 0 0 0 0 0 0 0 0 0 0 14 68 96 307 655 953 1428 1696 1515 1299 1202 1877 1927 1731 1633 1557 1481 1396 1295 1285 1301 1271 1340 1362 1233 1319 1140 917 716 359 44 13 0 30 83 188 214
0 0 0 0 0 0 0 0 0 0 0 0 2 53 126 691 1060 1178 1350 1424 1324 1369 1309 1631 1869 1858 1764 1591 1525 1496 1341 1316 1316 1385 1267 1265 1329 1227 1060 839 613 319 251 73 0 64 219 221 90
0 0 0 0 0 0 0 0 0 0 0 41 113 10 0 829 1076 979 937 993 1276 1427 1530 1439 1836 1858 1787 1665 1550 1539 1385 1287 1320 1364 1379 1398 1311 1219 1073 869 754 619 464 277 107 84 28 4 0
0 0 0 0 0 0 0 0 0 0 0 0 0 43 5 658 806 688 574 801 1145 1428 1495 1505 1582 1715 1864 1679 1528 1545 1439 1315 1302 1257 1303 1349 1286 1222 1131 915 802 688 542 428 311 211 67 15 6
0 0 0 0 0 0 0 0 0 0 0 0 0 0 18 59 695 553 430 784 806 1242 1311 1450 1538 1589 1428 1423 1683 1595 1508 1399 1303 1282 1317 1272 1246 1217 1182 864 818 859 725 585 421 272 157 100 55
0 0 0 0 0 0 0 0 0 0 0 0 0 0 0 95 437 482 769 989 910 817 1027 1262 1383 1521 1356 1290 1480 1650 1587 1554 1458 1378 1353 1060 811 829 748 744 539 937 837 710 600 434 278 214 206
0 0 0 0 0 0 0 0 0 0 0 0 0 0 0 347 485 775 920 965 908 774 699 990 1201 1258 1270 1469 1405 1413 1335 1363 1195 1079 1019 755 542 437 545 593 750 815 1002 871 790 675 500 397 55
0 0 0 0 0 0 0 0 0 0 0 0 0 0 0 0 62 831 915 969 996 934 631 798 965 1010 1112 1385 1427 1238 1169 1345 1188 1032 878 623 453 345 545 325 431 466 686 424 461 418 334 162 43
0 0 0 0 0 0 0 0 0 0 0 0 0 0 0 0 0 50 481 759 1028 960 583 608 736 832 972 1180 1135 972 1012 1084 999 1047 883 563 317 241 282 274 167 167 240 281 172 145 93 60 71
0 0 0 0 0 0 0 0 0 0 0 0 0 0 0 0 0 0 0 0 639 1120 694 498 599 616 698 746 990 943 1084 1037 995 1015 989 767 426 269 276 223 137 91 161 145 104 47 43 15 8
0 0 0 0 0 0 0 0 0 0 0 0 0 0 0 0 0 0 0 0 58 1051 722 394 358 318 205 313 734 676 928 1033 1012 971 1032 951 627 429 276 296 208 166 124 120 94 33 1 0 0
0 0 0 0 0 0 0 0 0 0 0 0 0 0 0 0 0 0 0 0 107 489 506 334 338 200 96 167 497 422 641 739 954 996 999 1076 922 656 505 274 234 211 87 94 76 35 0 0 0
0 0 0 0 0 0 0 0 0 0 0 0 0 0 0 0 0 0 0 0 3 455 472 364 490 263 122 211 432 439 342 286 526 493 591 913 1050 825 448 337 259 206 90 94 75 42 34 16 20
0 0 0 0 0 0 0 0 0 0 0 0 0 0 0 0 0 0 0 0 0 243 643 653 429 294 148 818 861 781 525 260 325 168 160 328 616 918 663 457 414 221 184 173 164 77 115 176 176
0 0 0 0 0 0 0 0 0 0 0 0 0 0 0 0 0 0 0 0 0 51 586 511 210 123 111 59 123 874 1559 1379 531 243 149 182 226 493 716 737 388 243 235 334 237 282 162 265 341
0 0 0 0 0 0 0 0 0 0 0 0 0 0 0 0 0 0 0 0 0 25 393 521 206 84 54 116 47 441 1105 1470 1723 1524 893 382 397 482 556 670 696 257 261 330 227 316 340 405 154
0 0 0 0 0 0 0 0 0 0 0 0 0 0 0 0 0 0 0 0 0 17 249 271 245 33 3 12 1041 1291 1335 1336 1314 973 935 1368 1202 734 720 659 704 679 481 432 385 220 291 256 163
0 0 0 0 0 0 0 0 0 0 0 0 0 0 0 0 0 0 0 0 0 0 27 74 5 0 0 0 1 20 0 3 136 71 138 148 191 647 1038 981 789 719 834 547 285 200 273 547 486
0 0 0 0 0 0 0 0 0 0 0 0 0 0 0 0 0 0 0 0 0 0 0 0 0 0 0 0 0 0 0 0 14 0 25 11 213 342 419 937 909 767 507 264 468 238 4 115 733
0 0 0 0 0 0 0 0 0 0 0 0 0 0 0 0 0 0 0 0 0 0 0 0 0 0 0 0 0 0 0 0 0 0 0 0 10 200 208 81 203 360 118 0 41 103 187 774 603
0 0 0 0 0 0 0 0 0 0 0 0 0 0 0 0 0 0 0 0 0 0 0 0 0 0 0 0 0 0 0 0 1 15 0 0 0 0 0 0 9 0 0 0 0 36 0 14 166
0 0 0 0 0 0 0 0 0 0 0 0 0 0 0 0 0 0 0 0 0 0 0 0 0 0 0 0 0 0 0 0 1 0 0 0 0 0 0 0 0 0 0 0 0 0 0 0 35
0 0 0 0 0 0 0 0 0 0 0 0 0 0 0 0 0 0 0 0 0 0 0 0 0 0 0 0 0 0 0 0 0 0 0 0 0 0 0 0 0 0 1 23 39 88 50 0 0
0 0 0 0 0 0 0 0 0 0 0 0 0 0 0 0 0 0 0 0 0 0 0 0 0 0 0 0 0 0 0 0 0 0 0 0 0 0 0 0 0 0 0 11 31 68 91 77 110
0 0 0 0 0 0 0 0 0 0 0 0 0 0 0 0 0 0 0 0 0 0 0 0 0 0 0 0 0 0 0 0 0 0 0 0 0 0 0 0 0 0 0 0 13 15 73 126 89
0 0 0 0 0 0 0 0 0 0 0 0 0 0 0 0 0 3 0 0 0 0 0 0 0 0 0 0 0 0 0 0 0 0 0 0 0 0 0 0 0 0 0 0 0 0 5 28 32
0 0 0 0 0 0 4 0 0 0 0 0 0 0 0 0 0 0 0 0 0 0 0 0 0 0 0 0 0 0 0 0 0 0 0 0 0 0 0 0 0 0 0 0 0 0 0 33 18

GFSSGP_con_sbcape_123.txt.gz
CAPE
0 0 0 0 0 0 0 0 0 0 0 0 0 0 56 212 346 390 816 1255 1189 1602 1691 1288 1693 1922 1972 1884 1779 1844 1913 1980 2000 1910 1830 1782 1744 1722 1605 1558 1395 890 494 173 0 29 150 250 295
0 0 0 0 0 0 0 0 0 0 0 0 0 170 468 583 1029 1217 1055 1320 1275 1626 1652 1218 1695 1900 1914 1792 1613 1587 1715 1805 1800 1736 1708 1679 1629 1529 1270 1399 1168 726 509 160 29 112 257 316 315
0 0 0 0 0 0 1 0 0 0 0 0 0 73 440 639 1174 1018 880 1419 1346 1592 1623 1349 1759 1839 1857 1695 1593 1520 1509 1544 1611 1627 1560 1570 1541 1505 1419 1442 1379 859 480 130 107 237 376 473 403
0 0 0 0 0 0 0 0 0 0 0 0 0 308 458 1021 895 915 1399 1365 1388 1507 1486 1625 1759 1781 1758 1694 1589 1548 1482 1457 1454 1417 1469 1476 1406 1377 1320 1377 1291 828 306 113 118 279 458 484 466
0 0 0 0 0 0 0 0 0 0 0 0 0 365 630 1412 1561 1832 1538 1353 1285 1452 1289 1426 1762 1779 1728 1629 1550 1539 1529 1458 1429 1435 1359 1343 1324 1212 1180 1088 673 408 190 111 117 222 286 360 452
0 0 0 0 0 0 0 0 0 0 0 0 3 445 663 1533 1823 1913 1589 1443 1275 1476 1378 1199 1600 1695 1625 1587 1514 1425 1388 1417 1417 1449 1462 1489 1372 1210 1044 825 502 265 187 128 107 135 179 229 225
0 0 0 0 0 0 0 0 0 0 0 0 12 541 462 1587 1814 2053 1687 1497 1385 1412 1466 1241 898 1325 1678 1537 1414 1288 1218 1292 1372 1343 1366 1440 1390 1239 950 796 487 308 254 160 111 91 89 42 11
0 0 0 0 0 0 0 0 0 0 0 0 0 471 535 1225 1793 1781 1684 1483 1352 1411 1343 1245 1081 698 666 953 1512 1325 1214 1197 1214 1228 1249 1276 1270 1083 870 694 587 384 295 212 189 171 156 87 61
0 0 0 0 0 0 0 0 0 0 0 0 0 0 0 1515 1362 1450 1512 1401 1325 1365 1442 1262 874 875 771 575 969 1302 1088 1203 1223 1111 1237 748 165 343 403 353 440 512 475 415 440 316 252 224 214
0 0 0 0 0 0 0 0 0 0 0 0 0 378 1052 1184 1173 1162 1136 1028 1033 1200 1388 1392 1188 937 909 713 880 808 719 634 537 531 663 381 443 461 313 429 788 609 670 823 709 595 450 264 16
0 0 0 0 0 0 0 0 0 0 0 0 0 18 1075 1242 1074 857 734 678 735 907 1265 1442 1684 1516 1052 730 1171 1164 889 980 1074 984 1004 842 623 589 519 517 486 566 615 246 296 257 173 90 92
0 0 0 0 0 0 0 0 0 0 0 0 0 0 527 1313 1405 1003 768 680 755 848 1117 1412 1677 1784 1654 1154 1201 1268 1241 1330 1180 1071 1252 1103 971 864 789 764 651 723 419 391 384 197 202 216 155
0 0 0 0 0 0 0 0 0 0 0 0 0 0 0 693 1278 1446 1274 1073 920 902 929 1292 1752 1867 1834 1876 1582 1527 1492 1384 1345 1486 1435 1251 1022 968 858 874 914 862 758 606 517 390 349 229 174
0 0 0 0 0 0 0 0 0 0 0 0 0 0 0 0 47 187 379 1368 1460 1396 1227 1221 1627 1888 1776 1766 2001 1746 1810 1574 1451 1605 1454 1317 1369 1322 987 970 894 922 941 878 872 791 652 527 429
0 0 0 0 0 0 0 0 0 0 0 0 0 0 0 0 0 0 0 25 958 1520 1912 1680 1513 1730 1985 1892 1996 1858 1817 1662 1521 1573 1531 1291 1221 1540 1435 1253 1224 1128 1109 1146 1101 1059 965 855 790
0 0 0 0 0 0 0 0 0 0 0 0 0 0 0 0 0 0 0 0 0 0 370 1626 1308 1511 1755 1880 1829 1817 1763 1707 1607 1606 1469 1518 1274 1646 1703 1618 1492 1456 1425 1251 1264 1169 1047 972 903
0 0 0 0 0 0 0 0 0 0 0 0 0 0 0 0 0 0 0 0 0 0 63 821 1387 1534 1681 1655 1640 1737 1741 1709 1608 1767 1716 1732 1791 1712 1935 1818 1666 1736 1503 1364 1252 1176 1063 1057 1052
0 0 0 0 0 0 0 0 0 0 0 0 0 0 0 0 0 0 0 0 0 0 0 446 1271 1734 1635 1523 1321 1413 1400 1455 1437 1609 1621 1743 1899 1839 2098 1911 1990 1910 1531 1435 1399 1410 1331 1210 1206
0 0 0 0 0 0 0 0 0 0 0 0 0 0 0 0 0 0 0 0 0 0 0 406 1105 1567 1467 1351 1283 1340 1425 1389 1398 1452 1526 1520 1544 1506 1771 1836 1935 1786 1597 1685 1672 1600 1608 1536 1325
0 0 0 0 0 0 0 0 0 0 0 0 0 0 0 0 0 0 0 0 0 0 0 16 949 1445 1437 1451 1531 1444 1480 1628 1739 2045 1870 1578 1467 1411 1479 1638 1752 1890 1872 2009 1889 1573 1615 1460 1426
0 0 0 0 0 0 0 0 0 0 0 0 0 0 0 0 0 0 0 0 0 0 14 65 466 1242 1288 1331 1225 785 1024 1160 1760 2242 2268 1704 1608 1554 1605 1484 1550 1726 1721 1722 1835 1575 1428 1628 1796
0 0 0 0 0 0 0 0 0 0 0 0 0 0 0 0 0 0 0 0 0 0 0 3 412 808 720 808 1191 1251 1303 1158 1004 1168 758 520 620 569 774 986 1200 1486 1470 1417 1458 1609 1404 1646 1530
0 0 0 0 0 0 0 0 0 0 0 0 0 0 0 0 0 0 0 0 0 0 0 0 185 396 370 454 930 1105 772 747 411 418 466 450 560 555 487 682 880 1027 815 1015 1110 1086 1115 1023 1307
0 0 0 0 0 0 0 0 0 0 0 0 0 0 0 0 0 0 0 0 0 0 0 12 229 183 190 229 320 512 518 410 339 327 330 229 248 351 447 444 703 830 688 670 549 787 860 755 719
0 0 0 0 0 0 0 0 0 0 0 0 0 0 0 0 0 0 0 0 0 0 0 57 145 119 143 167 218 292 507 564 582 524 295 255 177 178 274 454 504 276 455 420 466 582 594 561 518
0 0 0 0 0 0 0 0 0 0 0 0 0 0 0 0 0 0 0 0 0 0 0 0 0 0 0 0 0 0 10 31 83 312 189 129 79 68 156 247 199 162 126 129 224 60 61 276 289
0 0 0 0 0 0 0 0 0 0 0 0 0 0 0 0 0 0 0 0 0 0 0 0 0 0 0 0 0 0 0 0 9 79 102 46 77 12 33 88 80 58 48 15 50 3 60 88 91
0 0 0 0 1 0 0 0 0 0 0 0 0 0 0 0 0 0 0 0 0 0 0 0 0 0 0 0 0 0 0 0 0 0 1 17 38 20 1 48 54 53 32 7 28 0 3 68 54
0 0 0 0 0 1 0 0 0 0 0 0 0 0 0 0 0 0 0 0 0 0 0 0 0 0 0 0 0 0 0 0 0 0 0 0 0 0 0 0 9 15 28 22 32 12 0 0 12
0 0 0 8 0 0 0 0 0 0 0 0 0 0 0 0 0 0 0 0 0 0 0 0 0 0 0 0 0 0 0 0 0 0 0 0 0 0 0 0 0 0 0 0 0 0 0 0 0